CDT,Max TemperatureF,Mean TemperatureF,Min TemperatureF,Max Dew PointF,MeanDew PointF,Min DewpointF,Max Humidity, Mean Humidity, Min Humidity, Max Sea Level PressureIn, Mean Sea Level PressureIn, Min Sea Level PressureIn, Max VisibilityMiles, Mean VisibilityMiles, Min VisibilityMiles, Max Wind SpeedMPH, Mean Wind SpeedMPH, Max Gust SpeedMPH,PrecipitationIn, CloudCover, Events, WindDirDegrees
2013-9-1,96,84,71,71,70,67,93,66,39,29.94,29.89,29.83,10,9,5,12,4,16,0.00,1,,225
2013-9-2,96,85,73,77,72,70,93,70,46,29.96,29.91,29.86,10,10,5,15,4,18,0.02,2,Rain-Thunderstorm,221
2013-9-3,96,85,73,73,71,70,93,68,43,29.98,29.93,29.88,10,10,7,14,4,17,0.00,2,,28
2013-9-4,96,84,71,73,68,63,93,64,34,30.07,30.01,29.96,10,9,5,13,4,28,0.00,1,,47
2013-9-5,97,85,72,73,69,62,93,64,34,30.11,30.06,30.01,10,9,3,10,4,13,0.00,2,,149
2013-9-6,97,85,72,73,69,60,93,62,31,30.11,30.05,29.99,10,9,5,13,3,23,0.00,2,,118
2013-9-7,95,82,69,68,65,60,90,61,31,30.06,30.01,29.96,10,10,6,9,2,,0.00,1,,69
2013-9-8,96,81,66,70,65,61,93,63,33,30.01,29.97,29.92,10,9,5,12,3,15,0.00,1,,161
2013-9-9,97,83,69,69,66,62,90,62,33,30.06,30.00,29.96,10,9,6,12,3,14,0.00,1,,145
2013-9-10,96,84,71,70,68,65,90,63,35,30.13,30.08,30.02,10,9,6,16,4,,0.00,1,,93
2013-9-11,95,82,69,70,67,62,93,65,36,30.15,30.10,30.03,10,8,3,9,4,70,0.00,2,,119
2013-9-12,96,82,67,70,65,60,76,55,33,30.08,30.01,29.91,10,10,10,14,3,22,0.00,2,,9
2013-9-13,96,83,70,73,68,61,94,68,42,29.93,29.89,29.83,10,9,2,15,4,21,0.25,3,Rain-Thunderstorm,60
2013-9-14,87,74,60,61,56,52,84,57,30,30.01,29.96,29.92,10,10,10,12,5,21,0.00,0,,27
2013-9-15,93,75,57,64,58,53,93,60,26,30.08,30.03,30.00,10,10,10,10,2,14,0.00,0,,164
2013-9-16,96,82,67,70,65,60,84,58,31,30.12,30.06,30.00,10,10,7,13,3,21,0.00,1,,82
2013-9-17,96,81,65,65,61,56,87,58,28,30.11,30.05,29.98,10,10,9,14,4,21,0.00,1,,76
2013-9-18,90,79,67,71,68,59,87,69,50,30.09,30.04,29.99,10,10,10,14,7,16,0.00,2,,125
2013-9-19,94,83,72,71,69,66,93,69,44,30.07,30.01,29.95,10,10,9,18,7,25,0.00,2,,132
2013-9-20,89,81,72,76,72,70,100,80,59,30.00,29.88,29.78,10,7,1,32,7,40,1.13,5,Rain-Thunderstorm,166
2013-9-21,79,73,67,74,69,57,100,84,67,29.85,29.80,29.77,10,6,0,16,7,22,3.80,7,Fog-Rain,5
2013-9-22,80,69,58,58,54,52,84,62,39,29.88,29.84,29.80,10,10,10,16,8,30,0.00,0,,42
2013-9-23,86,71,55,71,63,53,93,72,51,29.88,29.85,29.82,10,10,10,15,4,,0.00,3,,94
2013-9-24,79,75,70,74,71,70,100,90,79,29.88,29.83,29.77,10,8,0,16,5,24,2.14,7,Fog-Rain-Thunderstorm,110
2013-9-25,86,75,64,72,67,60,100,72,44,29.84,29.81,29.78,10,7,0,12,3,16,0.00,5,Fog,221
2013-9-26,87,74,60,68,63,59,93,68,42,29.96,29.90,29.83,10,10,7,10,3,20,0.00,1,,47
2013-9-27,87,76,65,68,65,63,100,73,45,30.05,30.00,29.96,10,8,2,12,4,25,0.00,1,,92
2013-9-28,86,75,64,62,60,58,87,66,45,30.10,30.05,30.01,10,10,10,12,5,14,0.00,1,,115
2013-9-29,73,69,65,70,65,60,97,85,73,30.06,30.01,29.95,10,9,4,10,5,13,0.02,7,Rain,150
2013-9-30,84,76,68,71,68,65,97,81,65,29.98,29.95,29.90,10,10,7,13,7,18,0.01,6,,142